SCP
11 12 11 10 10 9 9 8 6 6 6 6 5 5 5 5 5 5 5 4 4 4 3 2 1 0 0 0 0 0 0 0 0 0 0 0 0 0 0 0 0 0 0
10 10 10 9 9 9 8 7 6 5 6 6 6 5 4 4 5 5 5 5 4 4 3 2 1 1 0 0 0 0 0 0 0 0 0 0 0 0 0 0 0 0 0
8 8 8 7 7 7 7 6 5 5 5 6 6 5 4 4 4 4 4 5 5 4 3 2 1 1 0 0 0 0 0 0 0 0 0 0 0 0 0 0 0 0 0
6 6 5 5 5 5 5 5 4 4 4 4 4 4 4 4 4 4 4 4 4 3 3 2 1 1 0 0 0 0 0 0 0 0 0 0 0 0 0 0 0 0 0
5 4 4 3 3 3 3 3 3 2 2 2 3 3 3 3 4 4 3 3 3 2 2 1 1 1 0 0 0 0 0 0 0 0 0 0 0 0 0 0 0 0 0
5 4 3 2 2 2 2 2 2 2 1 1 2 2 2 2 2 2 2 2 2 1 1 1 1 1 0 0 0 0 0 0 0 0 0 0 0 0 0 0 0 0 0
5 4 3 3 2 2 1 1 1 1 1 1 1 1 2 2 1 1 1 1 2 1 1 1 1 1 1 0 0 0 0 0 0 0 0 0 0 0 0 0 0 0 0
5 4 3 3 2 2 2 1 1 1 1 1 1 1 2 2 2 1 1 1 2 2 1 1 1 1 1 0 0 0 0 0 0 0 0 0 0 0 0 0 0 0 0
4 4 4 3 3 2 2 2 1 1 1 1 1 1 2 2 1 1 0 1 1 2 2 2 1 1 1 0 0 0 0 0 0 0 0 0 0 0 0 0 0 0 0
4 4 4 3 3 3 2 2 2 1 1 1 1 1 1 1 1 1 0 0 1 2 2 2 1 1 1 0 0 0 0 0 0 0 0 0 0 0 0 0 0 0 0
5 5 4 4 3 3 3 2 2 1 1 1 1 1 1 1 1 1 0 0 1 1 2 2 2 1 0 0 0 1 0 0 0 0 0 0 0 0 0 0 0 0 0
5 5 4 4 4 3 3 2 1 1 1 0 1 1 1 1 1 1 0 0 0 1 1 2 2 1 0 0 0 0 0 0 0 1 0 0 0 0 0 0 0 0 0
5 5 5 4 4 3 2 2 1 1 1 1 1 1 1 1 1 1 0 0 0 0 1 1 1 1 0 0 0 0 0 0 0 1 1 1 0 0 0 0 0 0 0
5 5 5 4 3 2 2 1 1 1 1 1 1 1 1 1 1 1 0 0 0 0 0 1 0 0 0 0 0 0 0 0 0 0 0 1 0 0 0 0 0 0 0
5 5 5 4 3 2 1 1 1 1 1 1 1 1 0 0 0 0 0 0 0 0 0 0 0 0 0 0 0 0 0 0 0 0 0 0 0 0 0 0 0 0 0
5 5 5 4 3 2 1 1 0 0 0 0 0 0 0 0 0 0 0 0 0 0 0 0 0 0 0 0 0 0 0 0 0 0 0 0 0 0 0 0 0 0 0
5 5 4 4 3 2 1 1 0 0 0 0 0 0 0 0 0 0 0 0 0 0 0 0 0 0 0 0 0 0 0 0 0 0 0 0 0 0 0 0 0 0 0
5 5 4 4 3 2 1 1 0 0 0 0 0 0 0 0 0 0 0 0 0 0 0 0 0 0 0 0 0 0 0 0 0 0 0 0 0 0 0 0 1 1 0
6 5 4 4 3 2 1 0 0 0 0 0 0 0 0 0 0 0 0 0 0 0 0 0 0 0 0 0 0 0 0 0 0 0 0 0 0 0 0 0 1 1 0
6 5 4 3 2 1 1 0 0 0 0 0 0 0 0 0 0 0 0 0 0 0 0 0 0 0 0 0 0 0 0 0 0 0 0 0 0 0 0 0 0 0 0
6 5 4 3 2 1 0 0 0 0 0 0 0 0 0 0 0 0 0 0 0 0 0 0 0 0 0 0 0 0 0 0 0 0 0 0 0 0 0 0 0 0 0
6 5 3 2 1 0 0 0 0 0 0 0 0 0 0 0 0 0 0 0 0 0 0 0 0 0 0 0 0 0 0 0 0 0 0 0 0 0 0 0 1 1 1
5 3 2 1 0 0 0 0 0 0 0 0 0 0 0 0 0 0 0 0 0 0 0 0 0 0 0 0 0 0 0 0 0 0 0 0 0 0 0 1 1 1 1
3 2 1 0 0 0 0 0 0 0 0 0 0 0 0 0 0 0 0 0 0 0 0 0 0 0 0 0 0 0 0 0 0 0 0 0 0 0 0 1 1 1 0
1 1 0 0 0 0 0 0 0 0 0 0 0 0 0 0 0 0 0 0 0 0 0 0 0 0 0 0 0 0 0 0 0 0 0 0 0 0 0 0 0 1 0
0 0 0 0 0 0 0 0 0 0 0 0 0 0 0 0 0 0 0 0 0 0 0 0 0 0 0 0 0 0 0 0 0 0 0 0 0 0 0 0 0 1 1
Wind_Speed
4 3 3 2 2 3 3 3 4 3 4 3 3 4 4 3 3 3 3 3 3 3 2 2 2 2 2 1 2 2 2 2 2 2 1 1 2 2 2 2 3 3 4
4 3 3 3 3 2 3 3 3 3 3 4 3 4 4 3 4 4 4 3 4 4 3 3 3 2 2 1 2 2 2 2 3 2 1 1 2 3 3 3 3 3 3
3 3 3 2 2 3 3 3 3 3 3 3 3 4 3 3 4 4 4 4 4 4 4 4 4 3 2 2 2 2 2 2 2 2 2 2 1 1 1 1 2 1 3
3 3 3 3 3 3 3 3 3 3 3 3 3 4 4 4 4 4 4 4 4 4 4 4 4 5 4 4 3 3 2 2 2 2 1 1 1 1 1 1 1 1 2
3 3 2 2 2 2 2 2 2 2 2 2 3 3 3 3 4 4 4 4 3 3 3 4 5 6 6 5 4 3 3 2 2 2 2 1 1 1 2 2 2 2 3
3 2 2 2 2 2 2 2 2 2 1 2 3 3 3 3 4 5 4 3 3 3 3 4 4 5 6 6 6 6 6 5 4 3 3 3 3 3 2 2 2 1 3
2 2 2 3 3 2 2 2 2 2 1 1 1 2 2 3 4 4 4 3 3 4 4 4 4 4 5 4 5 5 5 7 7 6 5 5 5 5 4 3 3 3 4
2 2 2 2 2 2 2 1 1 1 1 1 1 2 2 3 4 4 4 3 3 4 4 5 5 4 5 4 4 3 4 5 6 6 6 6 6 5 6 5 5 3 3
2 1 1 2 2 1 1 1 1 1 1 1 2 2 2 2 3 4 4 2 3 4 4 4 5 5 6 6 4 4 4 4 6 7 8 7 7 7 5 3 2 1 2
1 1 1 1 2 1 2 1 1 1 1 1 1 1 2 2 3 4 4 2 3 3 3 3 5 5 6 7 5 5 5 5 3 3 4 5 5 6 7 7 6 4 3
2 1 1 1 1 1 1 1 1 1 1 1 1 1 2 3 4 4 4 3 3 3 2 3 3 5 6 7 6 6 8 6 3 3 3 3 3 3 5 5 6 6 5
1 1 1 1 1 1 1 1 1 1 1 1 1 2 2 2 2 3 5 4 3 3 3 3 3 5 6 6 6 7 7 5 3 3 3 4 4 4 5 5 6 7 7
1 1 1 1 1 1 1 1 0 1 1 1 1 2 2 1 1 3 3 4 4 3 3 4 5 5 5 4 7 8 5 3 3 3 5 5 5 5 4 3 4 5 5
1 0 0 0 1 0 1 1 1 1 2 2 2 2 2 1 1 1 1 2 3 2 2 3 4 4 3 4 4 4 3 4 4 5 5 4 3 3 3 3 3 3 3
1 1 0 0 0 0 1 1 2 2 3 3 3 3 2 2 4 4 3 2 2 2 1 0 1 1 1 2 2 3 3 3 4 4 4 4 4 3 4 3 3 3 4
1 1 1 1 1 0 0 2 3 3 3 3 4 3 3 5 5 5 5 4 4 3 2 1 2 2 3 3 3 3 3 3 3 3 3 4 4 4 4 3 3 4 5
1 1 1 1 1 1 1 1 2 3 3 3 4 4 4 4 4 4 3 3 3 3 2 2 3 3 3 3 3 3 3 3 3 3 3 4 4 4 4 4 3 3 4
1 1 2 2 1 1 1 1 1 1 2 3 3 4 4 5 4 4 3 1 0 1 2 3 3 3 3 3 3 3 3 3 2 3 3 4 4 4 4 4 4 4 4
1 1 1 1 1 1 1 1 1 1 1 2 2 3 3 3 3 3 1 1 1 2 3 3 3 3 2 3 3 3 3 3 3 3 3 3 4 3 4 4 4 6 5
1 2 1 1 1 1 1 1 1 1 1 2 2 2 1 1 1 1 1 2 2 3 3 3 3 3 3 3 2 2 2 2 3 3 3 3 3 3 4 5 4 4 4
1 2 2 1 1 2 1 2 2 2 2 2 3 3 3 2 2 2 2 2 3 3 3 3 3 3 3 2 2 2 3 2 2 2 3 3 3 3 3 3 4 4 4
1 1 1 1 1 1 1 1 2 2 2 2 2 3 3 2 2 2 2 3 3 3 3 3 3 3 3 3 3 3 3 3 3 3 3 3 3 3 3 3 3 3 3
1 1 1 1 1 2 1 1 1 2 2 2 2 1 1 2 2 2 3 3 3 3 2 2 3 3 3 3 3 3 3 3 3 3 3 3 3 3 3 3 3 3 3
1 1 1 1 1 1 1 2 2 2 2 2 1 1 2 2 2 3 3 3 2 2 2 2 3 4 4 3 2 2 3 3 3 3 4 4 4 3 3 3 3 4 4
1 1 2 2 2 1 1 2 2 2 2 2 2 2 2 2 2 3 3 2 2 2 2 2 2 2 3 4 3 3 3 4 3 3 3 3 4 4 4 4 3 3 4
2 1 2 1 1 1 1 1 2 2 2 2 2 2 2 2 2 2 2 2 2 2 2 1 2 2 2 2 3 3 3 3 4 4 3 3 3 3 3 3 4 4 4
Wind_Direction
171 173 162 166 164 161 168 175 169 166 164 164 172 170 171 177 175 174 189 186 188 197 197 188 202 189 190 192 160 154 162 150 174 245 238 230 197 209 209 220 228 223 228
170 164 168 171 165 169 179 178 165 165 169 172 171 169 179 184 180 181 197 198 193 199 205 199 211 197 189 178 168 177 179 172 162 197 233 224 223 217 208 217 230 227 233
162 160 160 166 169 181 181 166 159 164 168 167 164 172 183 185 182 188 196 200 204 208 203 200 205 183 203 208 195 192 190 181 153 165 212 223 240 223 204 250 248 257 248
159 157 162 183 186 183 175 163 166 164 168 177 179 185 189 186 185 188 191 202 212 218 212 206 203 194 203 205 201 196 185 167 156 163 196 229 235 240 149 206 273 272 262
142 145 164 174 166 158 160 163 166 167 177 186 180 186 189 189 196 188 193 202 206 221 225 221 218 211 209 203 202 193 184 181 178 181 198 199 221 201 215 209 221 260 267
134 150 157 141 140 146 158 161 159 171 189 180 189 189 196 208 204 199 190 192 200 213 230 235 232 220 217 213 208 197 186 187 192 191 201 207 220 215 202 201 188 189 274
134 140 134 126 127 140 147 140 166 176 175 190 197 187 203 219 210 204 195 187 205 213 216 220 232 228 212 210 217 216 215 214 199 188 198 214 210 207 193 205 210 209 229
118 125 133 130 133 134 125 146 174 167 164 179 190 203 210 237 229 217 208 204 211 220 220 216 218 226 222 208 207 215 226 229 219 206 208 220 221 211 200 203 210 227 263
116 131 141 145 144 145 162 201 198 162 170 184 187 195 203 258 247 231 209 213 227 236 233 225 219 218 220 206 199 219 243 254 247 233 226 229 230 223 205 180 193 196 262
155 166 162 153 149 163 192 204 188 170 189 188 204 208 201 233 249 238 216 204 229 248 255 246 233 223 217 206 204 208 229 244 246 264 253 248 238 233 217 200 197 201 219
174 148 148 151 165 177 177 190 179 168 163 181 237 262 238 232 243 240 225 205 215 231 240 251 247 229 226 224 218 215 226 228 229 231 245 249 244 234 226 215 204 199 205
146 150 187 198 190 154 155 193 172 153 161 228 249 284 280 255 234 238 233 229 222 214 233 242 247 246 243 243 236 234 235 228 214 222 236 243 240 240 236 227 220 217 218
129 180 223 221 205 178 171 186 185 163 193 240 242 256 275 278 260 240 234 245 247 231 243 249 260 264 258 248 239 239 231 212 204 219 234 240 234 235 235 236 239 232 239
135 158 293 287 302 297 183 181 193 214 218 230 236 241 255 267 265 253 238 249 258 254 260 270 273 268 259 254 256 247 229 215 212 223 234 243 241 238 236 226 232 233 246
182 175 193 309 293 309 297 248 227 239 228 212 219 214 211 243 250 235 217 225 224 229 226 290 312 296 284 282 274 260 245 229 230 232 232 243 244 241 243 230 220 218 222
185 192 176 189 248 260 324 331 315 290 293 243 223 215 229 235 244 243 239 242 237 213 172 207 236 245 246 249 257 262 254 242 238 236 237 236 240 242 247 240 219 220 230
193 207 206 206 231 249 240 255 306 326 329 307 282 268 253 255 248 241 240 247 239 177 181 228 241 245 250 250 250 245 247 245 237 236 243 245 240 241 243 244 238 234 236
278 228 217 215 224 237 248 249 242 260 298 306 297 281 269 263 257 250 235 163 171 187 221 235 244 249 249 248 251 253 252 254 245 243 250 255 246 237 238 240 236 234 238
295 269 241 228 223 226 244 250 252 257 262 279 306 315 298 277 274 280 203 178 222 245 245 248 248 250 253 254 257 255 248 246 250 245 246 250 247 233 236 238 236 241 235
300 294 265 227 225 234 245 251 260 265 276 276 270 275 299 18 356 305 232 236 240 248 247 245 248 248 246 246 250 250 249 252 255 252 252 251 251 241 239 241 238 236 234
291 291 286 250 225 236 242 244 245 243 253 259 258 256 229 214 233 240 234 234 237 243 245 247 249 247 245 245 243 244 240 247 252 251 252 256 258 256 252 247 245 241 240
286 271 263 236 240 248 252 250 246 246 257 261 266 274 248 243 247 245 243 242 241 242 243 242 247 247 243 240 238 242 239 242 247 249 255 257 256 255 254 255 254 241 237
272 276 291 283 255 252 259 261 258 263 267 265 262 270 252 252 258 255 253 253 249 245 244 241 245 255 255 247 240 227 225 237 243 238 244 254 258 257 254 252 256 258 242
256 261 267 274 268 256 253 261 262 261 260 260 263 255 248 249 259 264 260 262 261 258 250 243 242 248 252 249 244 239 236 242 247 241 236 243 251 256 253 252 255 258 251
274 264 259 256 257 256 257 266 267 262 261 263 264 264 269 264 267 272 272 270 271 272 270 259 253 252 253 251 254 263 259 255 254 258 249 242 246 247 247 249 251 256 254
279 259 255 256 262 258 253 263 262 256 253 261 263 263 268 274 276 279 281 277 279 285 290 292 292 287 284 278 275 274 270 269 266 264 258 252 252 252 248 248 248 249 252